Wind_Speed
1 2 5 7 4 1 1 0 4 1 4 2 3 6 9 13 11 10 10 11 13 15 20 22 25 26 27 26 24 23 22 26 22 23 20 19 22 23 23 24 21 18 17 17
1 4 6 3 2 3 3 2 3 2 2 2 4 4 5 15 17 15 14 13 15 14 14 21 24 26 29 31 30 27 26 25 25 24 25 18 21 23 26 23 20 17 19 20
5 2 3 4 2 3 3 3 2 2 2 2 3 3 2 5 8 11 13 13 13 16 17 18 26 29 29 31 33 32 29 28 27 23 23 22 20 20 21 20 18 19 20 20
4 2 5 3 4 6 3 4 4 4 2 2 2 3 3 4 10 14 17 16 17 16 15 15 23 27 30 31 28 29 28 29 28 28 24 26 21 19 19 19 21 21 21 20
4 5 5 4 5 5 4 3 0 2 3 0 0 2 3 2 6 15 17 20 19 19 18 18 22 28 27 26 31 34 30 30 28 29 27 28 21 18 19 23 21 21 21 21
3 1 3 5 4 4 3 2 5 4 2 1 1 3 4 4 3 3 10 16 19 18 18 19 25 20 23 24 28 31 29 26 26 27 27 30 27 26 22 21 20 20 22 24
1 3 2 3 3 2 2 2 1 0 1 3 4 3 7 4 7 6 10 10 17 18 18 18 18 22 23 24 26 26 26 26 29 27 29 31 30 27 30 24 23 26 24 24
6 4 7 5 5 5 5 5 3 3 2 0 1 4 3 3 7 7 8 9 8 14 15 18 19 23 24 24 24 24 26 25 25 28 32 33 31 27 29 27 24 27 30 30
5 4 1 3 3 5 4 4 2 6 2 0 2 3 8 2 2 4 7 4 3 7 12 16 15 21 22 23 26 28 25 25 25 27 28 30 28 27 24 27 26 27 30 31
7 2 2 1 2 4 2 6 3 1 4 3 2 3 3 4 3 4 4 5 5 2 6 9 11 17 18 19 20 21 22 24 23 22 23 22 24 25 23 26 28 28 27 27
5 3 1 2 5 8 3 2 5 3 1 2 1 3 5 4 2 3 3 4 5 3 3 5 8 12 14 15 17 19 21 20 19 18 17 19 24 25 25 24 24 23 25 30
6 4 4 6 1 1 3 6 5 3 4 0 1 5 3 5 6 6 6 4 3 4 2 2 6 9 11 13 14 16 15 16 17 21 23 21 22 21 20 20 22 24 25 28
8 2 2 1 1 2 3 4 4 4 3 7 4 4 1 3 3 5 7 4 3 4 4 3 3 4 6 8 8 9 11 14 13 16 16 15 15 12 13 17 17 19 24 26
9 4 6 9 7 5 4 6 7 5 3 5 6 6 6 7 7 6 5 5 5 3 2 1 2 2 5 7 7 8 6 8 9 6 6 6 8 8 10 11 14 15 17 22
5 7 6 5 5 6 6 6 11 10 7 8 8 9 9 6 6 4 5 4 5 7 6 5 2 3 2 4 4 4 4 5 6 7 7 8 10 11 12 15 17 18 20 15
2 4 5 4 4 7 6 5 8 10 4 9 7 6 9 2 2 1 3 6 8 9 9 10 9 8 7 8 9 9 9 9 10 12 13 16 17 17 18 19 18 17 18 14
3 6 4 4 2 3 3 8 10 6 5 7 8 11 6 6 6 6 6 8 8 8 8 10 10 12 12 13 13 15 15 16 17 18 17 20 23 26 27 25 19 11 6 4
5 5 1 3 1 5 2 2 3 8 5 9 5 4 6 4 6 6 3 8 9 8 9 9 11 15 16 17 19 20 20 21 22 23 25 27 29 24 17 11 7 2 2 6
3 5 3 4 4 4 1 4 7 7 15 9 13 7 6 12 8 3 4 6 8 8 9 12 13 15 17 19 20 23 24 25 26 26 24 20 16 13 10 8 6 5 4 6
4 3 4 3 5 8 6 4 5 4 12 9 11 11 17 12 8 6 8 7 9 11 12 15 16 18 20 19 22 26 25 25 22 17 14 12 10 9 8 4 2 4 7 9
3 2 7 3 4 6 6 4 5 5 10 5 12 13 18 10 1 11 13 10 13 15 16 17 19 21 21 21 24 25 22 18 14 14 14 13 11 9 5 4 5 7 9 12
7 7 4 3 2 7 8 6 9 7 3 5 10 12 13 11 14 15 14 13 15 18 19 20 24 23 20 20 23 21 19 14 14 14 13 12 10 9 7 7 8 9 10 12
5 5 5 9 7 2 10 4 6 5 4 6 11 11 15 17 12 15 15 15 16 20 21 21 24 23 19 18 18 20 13 14 14 14 13 11 9 9 9 9 10 11 12 13
5 4 4 3 5 7 7 4 4 4 5 5 9 17 18 16 18 17 15 15 16 20 21 23 24 22 20 17 18 17 15 14 13 12 10 9 10 10 10 10 10 11 12 14
5 6 5 4 5 2 9 11 5 5 5 10 11 11 15 21 18 19 17 16 20 21 21 20 21 21 19 18 18 16 14 10 11 10 10 9 9 10 9 9 10 10 10 11
5 7 6 7 8 6 7 11 11 11 11 14 16 14 14 17 20 19 16 21 23 22 21 21 20 21 17 17 16 14 12 11 10 10 8 9 8 8 9 10 10 9 9 10
Wind_Direction
17 160 225 223 190 170 166 126 276 151 203 183 249 255 199 191 202 206 209 199 194 205 190 188 192 193 195 203 206 215 215 217 214 209 204 206 210 213 220 226 218 212 208 204
66 235 227 207 192 174 245 158 258 263 24 154 278 299 204 188 208 206 200 213 208 203 190 195 197 198 199 205 212 214 217 215 216 211 210 208 210 217 222 222 219 211 209 206
180 211 124 174 213 219 221 189 203 286 336 226 292 327 198 206 231 215 219 218 221 213 205 197 198 202 204 207 210 213 213 215 216 211 208 208 212 220 221 216 212 210 210 210
233 231 193 185 228 187 240 220 175 206 240 297 356 285 274 213 225 224 219 216 216 215 218 216 201 203 206 210 211 214 214 215 217 216 208 206 207 208 219 212 210 213 212 208
231 170 179 193 217 181 226 180 168 108 89 188 172 214 263 182 233 233 222 221 222 214 208 211 212 212 208 205 208 214 216 217 218 218 214 215 214 215 226 216 216 215 209 205
209 201 185 208 194 198 107 98 46 55 105 204 212 214 282 236 222 274 244 230 223 218 210 214 220 207 210 206 208 212 212 215 217 217 215 222 222 221 215 206 206 208 207 204
247 220 225 186 145 121 112 93 268 155 165 216 130 166 246 250 264 255 283 246 224 214 212 211 210 205 206 202 206 209 209 211 218 218 219 222 228 226 227 214 212 211 201 199
195 258 185 182 197 179 183 196 171 220 198 243 177 227 239 229 293 285 287 271 231 212 209 210 212 209 209 207 204 204 209 213 213 217 223 231 232 225 227 221 226 223 213 207
152 247 193 207 153 159 167 202 136 108 48 286 265 275 281 340 314 332 341 351 285 228 217 219 215 209 206 203 206 208 208 212 216 218 218 225 227 224 224 229 229 230 223 215
195 150 195 138 158 68 186 148 128 35 175 218 255 271 246 326 323 351 349 330 306 267 218 216 208 206 208 208 208 208 213 218 221 223 223 222 226 231 230 241 233 230 224 215
139 135 197 140 201 180 155 200 60 120 148 193 199 246 214 232 237 286 288 276 274 278 238 215 212 209 209 208 208 210 217 222 223 224 223 230 241 240 240 236 229 227 216 205
187 149 174 195 345 208 172 176 162 165 200 269 270 249 220 245 265 281 263 246 258 276 293 193 206 197 200 210 215 221 221 221 224 231 238 238 240 237 231 226 218 208 205 202
173 178 156 311 78 38 219 198 149 109 101 190 193 252 189 288 282 258 272 268 240 229 213 194 160 177 193 203 209 213 217 226 228 234 235 228 229 215 197 200 204 203 199 199
123 140 168 221 220 156 196 196 184 155 161 181 221 244 273 281 285 284 294 303 292 300 277 50 119 153 182 190 200 204 196 223 235 224 199 181 155 175 184 184 178 183 188 174
140 191 178 225 220 186 200 192 177 199 207 195 237 208 249 253 254 280 307 344 67 68 60 70 116 130 141 125 118 127 155 169 172 162 146 144 144 146 148 151 156 156 159 160
185 196 157 195 165 195 221 207 197 212 214 244 245 246 233 240 156 21 91 103 93 85 77 74 74 84 94 93 93 95 98 104 117 110 114 127 134 131 131 131 125 123 126 122
169 141 137 221 159 167 310 206 192 192 194 198 208 226 168 194 182 147 124 111 104 92 80 77 75 76 82 91 104 101 103 105 102 104 107 114 120 115 114 114 108 103 93 189
157 139 90 156 152 221 232 73 183 221 237 224 260 232 206 167 115 101 68 126 113 104 94 83 84 86 89 98 101 105 107 105 105 104 104 107 110 107 100 80 60 45 270 275
170 137 131 156 202 299 214 194 177 183 253 214 227 203 147 136 126 87 72 93 110 107 97 94 96 98 99 102 107 105 102 105 105 102 101 100 94 86 67 49 11 339 301 282
92 58 170 150 177 221 197 215 150 125 279 202 191 176 159 161 173 169 156 130 112 103 103 106 106 105 101 102 106 105 106 106 103 101 98 91 85 77 63 49 9 329 318 312
127 78 188 160 215 280 244 159 149 162 257 201 190 171 165 180 96 131 136 122 114 116 116 113 106 101 102 107 107 101 100 94 98 98 92 89 83 79 64 37 12 349 334 323
174 159 180 112 136 258 153 109 177 209 178 185 176 170 159 126 127 130 131 129 129 124 119 113 107 102 103 107 104 100 95 102 101 98 92 83 74 65 47 23 3 353 346 332
254 201 183 192 203 192 198 200 186 168 160 188 167 155 141 139 145 142 140 139 135 128 120 117 111 103 95 95 101 101 100 107 104 95 82 71 60 43 26 18 6 355 350 344
257 214 187 130 206 219 217 226 229 197 208 175 170 153 153 149 149 144 142 140 133 130 124 122 114 106 99 94 92 97 104 103 98 85 71 53 41 29 22 19 13 2 356 349
194 154 162 280 270 324 252 232 205 189 147 125 133 152 154 143 148 145 144 142 136 130 127 122 116 109 102 99 93 92 92 93 87 77 61 45 34 25 17 18 10 8 1 350
188 178 174 215 208 196 230 196 165 165 172 157 140 130 145 146 144 143 138 137 134 130 128 119 114 112 109 101 91 81 76 72 73 66 51 39 32 21 17 7 0 -0 356 352
Height
786 787 791 786 788 787 788 789 789 784 778 781 783 781 779 784 787 789 790 792 795 796 801 805 809 813 818 822 825 827 830 832 835 838 840 842 843 846 848 851 853 855 856 859
789 791 782 784 787 787 789 788 789 785 779 782 781 776 776 779 777 779 784 788 789 793 797 802 806 809 812 815 818 822 825 829 831 834 835 838 840 842 846 849 850 852 855 856
789 782 781 782 784 787 786 786 786 787 781 784 780 777 779 780 779 779 778 780 784 786 789 794 798 802 806 808 810 814 818 822 827 830 832 834 838 841 844 844 847 850 853 854
784 779 781 783 784 782 788 778 779 784 785 790 784 794 782 778 779 777 773 775 776 780 784 787 791 794 796 800 806 809 813 817 821 825 828 829 832 836 838 840 845 847 850 851
780 781 782 783 780 778 779 776 778 780 786 789 792 792 774 781 778 769 768 765 766 770 775 779 781 783 791 795 798 802 807 812 816 819 823 826 830 834 835 839 842 844 847 849
776 773 774 771 771 774 774 780 786 791 791 801 790 789 779 771 765 762 758 760 761 763 766 770 774 782 785 789 793 796 801 806 810 814 817 821 825 828 831 834 837 840 842 845
779 775 769 769 774 773 777 785 797 800 802 798 793 796 775 760 758 757 754 753 752 755 760 763 768 773 777 781 785 790 795 799 803 808 812 815 818 823 825 829 831 834 836 840
781 786 771 767 767 772 779 780 794 804 803 794 793 789 764 757 754 754 753 750 750 751 754 758 759 765 770 774 779 784 788 794 797 801 804 808 812 816 820 824 827 829 832 834
784 780 765 765 763 763 777 783 780 801 817 805 788 779 759 757 755 752 747 746 747 751 752 753 758 762 765 770 773 777 783 787 791 794 799 803 807 811 815 819 823 824 827 830
764 775 768 765 763 768 771 773 787 794 802 805 794 789 772 760 756 755 751 747 745 748 751 753 756 759 762 767 771 776 781 783 787 791 795 799 803 807 810 814 816 820 824 829
760 762 775 768 767 766 775 778 786 784 792 791 799 782 762 757 754 754 753 749 746 744 747 751 753 756 760 764 768 772 777 781 785 789 792 796 799 802 805 808 812 816 820 825
752 763 778 767 763 760 762 767 772 784 790 801 799 782 752 754 755 754 750 749 745 745 746 750 752 755 759 763 767 770 776 780 782 784 787 791 795 797 800 804 807 811 817 823
750 766 773 769 769 766 765 766 769 779 787 792 793 775 753 752 750 750 749 746 747 746 747 749 753 757 760 763 766 771 774 776 780 782 786 790 793 796 799 802 806 811 815 819
734 757 758 764 758 759 768 763 766 765 781 775 776 763 752 747 749 743 745 747 746 748 749 751 753 756 759 762 765 768 773 776 779 782 786 791 795 798 801 804 806 812 818 822
734 749 756 753 751 753 751 752 762 762 759 765 756 765 749 744 743 744 749 748 747 750 752 752 754 756 759 762 765 768 772 775 779 783 787 791 795 798 802 806 810 815 819 824
739 745 752 755 754 753 752 750 755 757 758 761 758 758 742 743 746 749 750 750 753 755 757 758 760 761 763 766 768 771 775 778 782 786 790 794 796 801 805 811 815 818 821 824
743 749 756 755 761 757 765 751 748 748 747 744 754 740 742 744 746 750 753 754 758 761 762 763 764 765 768 770 772 776 779 782 786 790 795 798 802 806 811 814 818 822 825 827
743 748 757 764 772 767 734 739 737 739 737 739 740 736 738 741 755 758 759 757 762 765 766 767 769 770 772 774 777 780 783 787 791 796 800 804 807 810 815 819 821 822 823 824
733 748 760 760 756 747 736 736 737 738 723 726 729 734 744 752 754 761 766 765 767 769 770 771 773 774 777 779 781 783 787 791 796 801 805 809 811 813 816 818 820 821 822 822
743 743 739 765 753 751 730 723 727 727 732 720 724 732 741 748 745 746 766 768 770 771 773 775 777 779 781 784 785 787 793 797 802 805 808 811 812 814 815 818 819 819 819 819
743 747 742 758 745 736 723 722 724 739 722 716 719 724 732 734 738 749 764 769 771 773 776 778 780 781 785 789 790 793 798 802 806 808 810 811 813 814 816 817 818 817 817 816
725 734 742 750 747 734 716 725 725 707 713 714 719 723 729 742 751 756 764 769 773 775 779 781 782 786 791 793 794 798 802 806 808 810 811 813 815 815 816 816 816 816 815 813
726 710 714 714 711 702 704 697 701 704 705 712 715 723 732 742 750 756 762 768 773 776 779 783 785 789 794 796 798 801 806 808 809 811 813 815 816 816 816 816 815 815 814 812
718 710 705 707 698 699 700 701 703 704 704 708 711 718 727 736 747 755 763 768 773 777 781 785 788 792 797 800 802 804 807 809 810 812 814 815 816 816 816 815 815 815 814 812
704 705 705 704 699 702 698 697 698 704 707 710 716 721 726 734 746 751 759 766 772 778 784 787 791 795 800 803 805 807 809 811 812 813 814 815 815 814 814 815 814 814 813 812
694 693 697 692 677 678 675 681 694 701 704 708 713 725 732 735 741 752 761 768 773 780 785 790 795 798 803 805 807 810 811 812 812 813 814 814 814 814 814 813 813 812 811 809